Home > Weather > Hard > Past weeks

Flag for Austria Weather for the Past 2 Weeks in Hard, Vorarlberg, Austria

Now
41 °F

Quite cool.


Feels Like: 36 °F
Forecast: 43 / 53 °F
Wind: 7 mph from Southeast

Location: Bregenz

Current Time: Feb 8, 2016 at 10:10:01 AM

Latest Report: Feb 8, 2016 at 9:00 AM


Visibility: N/A

Pressure: 29.87 "Hg

Humidity: 78%

Dew point: 35 °F

Location of HardLocation

Historic Weather in Hard — Graph

°F

Hard Temperature Yesterday

Maximum temperature yesterday: 57 °F (at 1:00 PM)
Minimum temperature yesterday: 40 °F (at 10:00 PM)
Average temperature yesterday: 48 °F

High & Low Weather Summary for the Past Weeks

 TemperatureHumidityPressure
High59 °F (Feb 1, 3:00 PM)100% (Feb 6, 8:00 AM)30.66 "Hg (Feb 6, 8:00 AM)
Low32 °F (Jan 24, 9:00 AM)35% (Feb 7, 7:00 AM)29.61 "Hg (Feb 7, 11:00 AM)
Average43 °F80%30.27 "Hg
* Reported Jan 24 8:00 AM — Feb 8 8:00 AM, Hard, Weather by CustomWeather, © 2016

Note: Actual official high and low records may vary slightly from our data, if they occured in-between our weather recording intervals... More about our weather records

Advertising

Hard Weather History for the Previous 24 Hours

 ConditionsComfort  
Time TempWeatherWind HumidityBarometerVisibility
8:00 AM
Mon, Feb 8
40 °FQuite cool.9 mph80%29.88 "HgN/A
7:00 AM35 °FPassing clouds.5 mph95%29.90 "Hg16 mi
6:00 AM38 °FChilly.2 mph90%29.90 "HgN/A
5:00 AM39 °FChilly.2 mph86%29.92 "HgN/A
2:00 AM41 °FQuite cool.5 mph85%29.95 "HgN/A
1:00 AM42 °FQuite cool.6 mph81%29.98 "HgN/A
11:00 PM
Sun, Feb 7
42 °FQuite cool.5 mph79%29.97 "HgN/A
10:00 PM40 °FQuite cool.2 mph96%29.99 "HgN/A
9:00 PM41 °FFog.2 mph96%29.98 "HgN/A
8:00 PM42 °FFog.1 mph93%29.95 "HgN/A
7:00 PM42 °FQuite cool.2 mph92%29.93 "HgN/A
6:00 PM44 °FQuite cool.2 mph78%29.89 "HgN/A
5:00 PM46 °FCool.2 mph71%29.85 "HgN/A
4:00 PM47 °FCool.2 mph75%29.80 "HgN/A
3:00 PM48 °FCool.3 mph75%29.77 "HgN/A
2:00 PM47 °FCool.3 mph72%29.74 "HgN/A
1:00 PM57 °FOvercast.6 mph37%29.62 "Hg19 mi
12:00 PM56 °FRefreshingly cool.8 mph39%29.62 "HgN/A
11:00 AM56 °FRefreshingly cool.6 mph39%29.61 "HgN/A
10:00 AM55 °FOvercast.7 mph42%29.62 "Hg19 mi
Weather by CustomWeather, © 2016

See weather overviewHow to use our weather pages